Weather History for Menomonie, WI

Change the Weather History Date:

Friday, July 12, 2013

  Actual Average (KEAU) Record (KEAU)
Temperature  
Mean Temperature 74 °F 72 °F  
Max Temperature 86 °F 83 °F 110 °F (1936)
Min Temperature 61 °F 61 °F 43 °F (1941)
Degree Days  
Heating Degree Days 0 0  
Month to date heating degree days 2  
Since 1 June heating degree days 64  
Since 1 July heating degree days 2  
Cooling Degree Days 8 7  
Month to date cooling degree days 83  
Year to date cooling degree days 235  
Since 1 June cooling degree days 203  
Growing Degree Days 24 (Base 50)    
Moisture  
Dew Point 58 °F    
Average Humidity 57    
Maximum Humidity 87    
Minimum Humidity 36    
Precipitation  
Precipitation 0.00 in 0.12 in 2.58 in (1912)
Month to date precipitation 1.51  
Year to date precipitation 15.28  
Snow  
Snow 0.00 in 0.00 in 0.00 in ()
Month to date snowfall 0.0  
Since 1 June snowfall 0.0  
Since 1 July snowfall 0.0  
Snow Depth -    
Sea Level Pressure  
Sea Level Pressure 30.04 in    
Wind  
Wind Speed 8 mph (SE)    
Max Wind Speed 17 mph    
Max Gust Speed 24 mph    
Visibility 10 miles    
Events      
T = Trace of Precipitation, MM = Missing Value Source: NWS Daily Summary

Daily Weather History Graph

Daily Weather History Graph

Search for Another Location

Airport:

Trip Planner

Search our weather history database for the weather conditions in past years. The results will help you decide how hot, cold, wet, or windy it might be!

Date:

Astronomy

Jul. 12, 2013 Rise Set
Actual Time 5:33 AM CDT 8:52 PM CDT
Civil Twilight 4:56 AM CDT 9:28 PM CDT
Nautical Twilight 4:09 AM CDT 10:15 PM CDT
Astronomical Twilight 3:10 AM CDT 11:14 PM CDT
Moon 10:03 AM CDT (7/12) 10:48 PM CDT (7/12)
Length of Visible Light 16h 31m
Length of Day
15h 19m
Waxing Crescent, 17% of the Moon is Illuminated
Jul 12
Waxing Crescent
Jul 15
First Quarter
Jul 22
Full
Jul 29
Last Quarter
Aug 6
New

Hourly Weather History & Observations

Time (CDT) Temp. Heat Index Dew Point Humidity Pressure Visibility Wind Dir Wind Speed Gust Speed Precip Events Conditions
12:15 AM 66.6 °F - 57.4 °F 72% 30.05 in 10.0 mi SSE 5.8 mph - N/A   Clear
12:35 AM 68.5 °F - 57.0 °F 67% 30.04 in 10.0 mi SSE 8.1 mph - N/A   Clear
12:55 AM 70.3 °F - 56.7 °F 62% 30.05 in 10.0 mi South 8.1 mph - N/A   Clear
1:15 AM 69.3 °F - 57.0 °F 65% 30.04 in 10.0 mi SSE 6.9 mph - N/A   Clear
1:35 AM 68.9 °F - 57.2 °F 66% 30.04 in 10.0 mi SSE 8.1 mph - N/A   Clear
1:55 AM 68.9 °F - 57.4 °F 67% 30.05 in 10.0 mi SSE 6.9 mph - N/A   Clear
2:15 AM 67.5 °F - 57.6 °F 70% 30.04 in 10.0 mi SSE 6.9 mph - N/A   Clear
2:35 AM 67.5 °F - 57.6 °F 70% 30.05 in 10.0 mi SSE 6.9 mph - N/A   Clear
2:55 AM 68.0 °F - 57.6 °F 69% 30.05 in 10.0 mi SSE 6.9 mph - N/A   Clear
3:15 AM 67.3 °F - 57.6 °F 71% 30.05 in 10.0 mi SSE 5.8 mph - N/A   Clear
3:35 AM 66.7 °F - 57.4 °F 72% 30.05 in 10.0 mi SSE 4.6 mph - N/A   Clear
3:55 AM 66.0 °F - 57.4 °F 74% 30.06 in 10.0 mi SE 4.6 mph - N/A   Clear
4:15 AM 65.1 °F - 57.7 °F 77% 30.06 in 10.0 mi ESE 3.5 mph - N/A   Clear
4:35 AM 64.6 °F - 58.1 °F 79% 30.06 in 10.0 mi ESE 4.6 mph - N/A   Scattered Clouds
4:55 AM 63.7 °F - 58.1 °F 82% 30.07 in 10.0 mi Calm Calm - N/A   Scattered Clouds
5:15 AM 63.0 °F - 58.3 °F 85% 30.07 in 10.0 mi Calm Calm - N/A   Mostly Cloudy
5:35 AM 62.6 °F - 58.1 °F 85% 30.07 in 10.0 mi ESE 3.5 mph - N/A   Scattered Clouds
5:55 AM 62.2 °F - 58.3 °F 87% 30.08 in 10.0 mi ESE 3.5 mph - N/A   Scattered Clouds
6:15 AM 61.9 °F - 58.1 °F 87% 30.08 in 7.0 mi SE 3.5 mph - N/A   Scattered Clouds
6:35 AM 63.1 °F - 59.0 °F 86% 30.08 in 7.0 mi East 3.5 mph - N/A   Scattered Clouds
6:55 AM 63.5 °F - 59.0 °F 85% 30.08 in 7.0 mi ESE 5.8 mph - N/A   Clear
7:15 AM 66.0 °F - 59.2 °F 79% 30.09 in 10.0 mi ESE 3.5 mph - N/A   Clear
7:35 AM 66.7 °F - 59.7 °F 78% 30.09 in 10.0 mi ESE 5.8 mph - N/A   Clear
7:55 AM 68.4 °F - 59.4 °F 73% 30.08 in 10.0 mi ESE 5.8 mph - N/A   Clear
8:15 AM 70.0 °F - 59.5 °F 69% 30.09 in 10.0 mi SE 5.8 mph - N/A   Clear
8:35 AM 73.0 °F - 57.9 °F 59% 30.08 in 10.0 mi SSE 10.4 mph - N/A   Clear
8:55 AM 73.9 °F - 57.9 °F 57% 30.08 in 10.0 mi South 10.4 mph - N/A   Clear
9:15 AM 75.2 °F - 57.6 °F 54% 30.09 in 10.0 mi SSE 10.4 mph - N/A   Clear
9:35 AM 77.0 °F - 56.8 °F 50% 30.08 in 10.0 mi SSE 13.8 mph 19.6 mph N/A   Scattered Clouds
9:55 AM 77.2 °F - 56.3 °F 48% 30.08 in 10.0 mi SSE 11.5 mph 18.4 mph N/A   Scattered Clouds
10:15 AM 78.1 °F - 56.3 °F 47% 30.08 in 10.0 mi SE 16.1 mph - N/A   Clear
10:35 AM 79.2 °F - 56.5 °F 46% 30.08 in 10.0 mi SSE 15.0 mph 19.6 mph N/A   Clear
10:55 AM 79.7 °F - 56.5 °F 45% 30.07 in 10.0 mi SE 17.3 mph - N/A   Clear
11:15 AM 80.6 °F 80.7 °F 56.7 °F 44% 30.07 in 10.0 mi SSE 12.7 mph 20.7 mph N/A   Clear
11:35 AM 80.6 °F 80.7 °F 56.8 °F 44% 30.07 in 10.0 mi SSE 12.7 mph 18.4 mph N/A   Clear
11:55 AM 81.5 °F 81.4 °F 57.2 °F 43% 30.06 in 10.0 mi South 15.0 mph - N/A   Clear
12:15 PM 82.2 °F 82.0 °F 57.6 °F 43% 30.06 in 10.0 mi SSE 13.8 mph 19.6 mph N/A   Clear
12:35 PM 82.0 °F 81.8 °F 57.7 °F 43% 30.05 in 10.0 mi SSE 15.0 mph 20.7 mph N/A   Clear
12:55 PM 83.1 °F 82.7 °F 57.7 °F 42% 30.05 in 10.0 mi SSE 16.1 mph 19.6 mph N/A   Clear
1:15 PM 83.3 °F 82.9 °F 58.3 °F 42% 30.05 in 10.0 mi SE 11.5 mph 19.6 mph N/A   Clear
1:35 PM 83.7 °F 83.3 °F 58.1 °F 42% 30.04 in 10.0 mi SE 15.0 mph 19.6 mph N/A   Clear
1:55 PM 84.6 °F 83.9 °F 57.9 °F 40% 30.03 in 10.0 mi SE 16.1 mph 20.7 mph N/A   Clear
2:15 PM 84.7 °F 83.7 °F 56.7 °F 38% 30.03 in 10.0 mi SSE 17.3 mph 23.0 mph N/A   Clear
2:35 PM 85.8 °F 84.7 °F 56.5 °F 37% 30.03 in 10.0 mi SSE 16.1 mph - N/A   Clear
2:55 PM 86.4 °F 85.2 °F 57.2 °F 37% 30.03 in 10.0 mi SSE 13.8 mph 21.9 mph N/A   Clear
3:15 PM 85.8 °F 84.8 °F 57.2 °F 38% 30.03 in 10.0 mi SSE 16.1 mph 24.2 mph N/A   Clear
3:35 PM 86.4 °F 85.1 °F 56.7 °F 36% 30.02 in 10.0 mi SSE 16.1 mph 24.2 mph N/A   Clear
4:15 PM 86.0 °F 85.0 °F 57.4 °F 38% 30.01 in 10.0 mi SE 16.1 mph 21.9 mph N/A   Clear
4:35 PM 86.0 °F 84.9 °F 56.8 °F 37% 30.01 in 10.0 mi SE 16.1 mph 21.9 mph N/A   Clear
4:55 PM 86.0 °F 84.7 °F 56.3 °F 36% 30.00 in 10.0 mi SSE 15.0 mph 21.9 mph N/A   Clear
5:15 PM 85.6 °F 84.5 °F 56.3 °F 37% 30.00 in 10.0 mi SSE 15.0 mph 20.7 mph N/A   Clear
5:35 PM 85.5 °F 84.1 °F 55.4 °F 36% 30.00 in 10.0 mi SSE 17.3 mph - N/A   Clear
5:55 PM 85.1 °F 84.1 °F 56.5 °F 38% 30.00 in 10.0 mi SSE 11.5 mph 19.6 mph N/A   Clear
6:15 PM 84.6 °F 83.7 °F 56.8 °F 39% 30.00 in 10.0 mi SE 12.7 mph 17.3 mph N/A   Clear
6:35 PM 83.7 °F 83.1 °F 57.4 °F 41% 30.00 in 10.0 mi SE 13.8 mph 19.6 mph N/A   Clear
6:55 PM 83.3 °F 82.9 °F 58.1 °F 42% 30.00 in 10.0 mi SE 12.7 mph - N/A   Clear
7:15 PM 82.2 °F 82.1 °F 58.1 °F 44% 30.00 in 10.0 mi SSE 13.8 mph 18.4 mph N/A   Clear
7:35 PM 81.5 °F 81.5 °F 57.6 °F 44% 30.00 in 10.0 mi SSE 12.7 mph - N/A   Clear
7:55 PM 80.6 °F 80.8 °F 57.7 °F 45% 30.00 in 10.0 mi SSE 11.5 mph - N/A   Clear
8:15 PM 79.2 °F - 57.6 °F 47% 29.99 in 10.0 mi SSE 11.5 mph - N/A   Clear
8:35 PM 78.1 °F - 57.7 °F 49% 30.00 in 10.0 mi SSE 6.9 mph - N/A   Clear
8:55 PM 76.1 °F - 58.6 °F 55% 30.00 in 10.0 mi SE 6.9 mph - N/A   Clear
9:15 PM 74.5 °F - 59.5 °F 60% 30.00 in 10.0 mi SE 5.8 mph - N/A   Clear
9:35 PM 73.6 °F - 59.9 °F 62% 29.99 in 10.0 mi SE 6.9 mph - N/A   Clear
9:55 PM 73.8 °F - 59.0 °F 60% 29.99 in 10.0 mi SE 8.1 mph - N/A   Clear
10:15 PM 73.6 °F - 58.8 °F 60% 29.99 in 10.0 mi SE 8.1 mph - N/A   Clear
10:35 PM 72.9 °F - 58.8 °F 61% 29.99 in 10.0 mi SE 6.9 mph - N/A   Scattered Clouds
10:55 PM 71.8 °F - 59.0 °F 64% 29.99 in 10.0 mi ESE 5.8 mph - N/A   Scattered Clouds
11:15 PM 70.5 °F - 59.4 °F 68% 30.00 in 10.0 mi ESE 4.6 mph - N/A   Clear
11:35 PM 69.4 °F - 59.5 °F 71% 30.01 in 10.0 mi ESE 3.5 mph - N/A   Clear
11:55 PM 69.1 °F - 59.9 °F 72% 30.02 in 10.0 mi East 4.6 mph - N/A   Clear